CZ-3A DEB, 35554

Orbit data source: Space-Track

CZ-3A DEB, 35554 is space debris in HEO originally from a launch on Fri, 02 Feb 2007 UTC launched from the Xichang Space Center, China (XSC). Debris objects in space refer to the collection of defunct objects orbiting the Earth. Examples of debris include non-operational satellites, rocket bodies, and fragments generated from explosions, collisions, or faulty payload assembly.

Loading next visibility...
Identifier
35554, 2007-003N
Orbit
HEO
Country
Flag of CNCN / PRC
Related business
Manufacturer
Unknown
Mission
Spacecraft
Bus & Motor
Unknown
Mass
Unknown
Launch date (UTC)
2007-02-02 (19 years ago)
Launch vehicle
Unknown
Launch site
Xichang Space Center, China (XSC)
Object type
Payload
Rocket body
Debris
Shape & HBR
Unknown shape, 0.3 m
Radar Cross Section
Medium (>0.1 m² and <1 m²)

Expand to show TLE details & history
Last TLE update: 2 months ago

TLE from 2 months ago
0 CZ-3A DEB
1 35554U 07003N   26063.51129178 -.00000137  00000-0 -10255-2 0  9991
2 35554  23.5368 258.3844 7514131 233.5241  32.1024  1.86114180 85372
Epoch: 2026-03-04T12:16Z
TLE epoch observation values (Epoch: 2026-03-04T12:16:15.609Z)
Latitude
-0.00055°
Longitude
-88.093°
Altitude
15,485.283 km
Speed
4.71 km/s
True Right ascension
17h 12m 59s
True Declination
0° 00' 02"
Sunlit
Object was in daylight at epoch
Visualization orbit readout
Latitude
Unknown
Longitude
Unknown
Altitude
Unknown
Speed
Unknown
Apparent Right ascension
Unknown
Apparent Declination
Unknown
Sunlit
N/A
Visualization observer readout
Local Sidereal Time
18:22:49
Azimuth
Unknown
Elevation
Unknown
Doppler factor
Unknown
Orbital elements
Apogee altitude
42,524.925 km
Perigee altitude
562.921 km
Semi-major axis
27,922.06 km
Eccentricity
0.75141
Inclination
23.5368°
RAAN
258.3844°
Arg. of periapsis
233.5241°
True anomaly
126.33047°
Mean anomaly
32.1024°
Eccentric anomaly
73.35015°
Mean motion
0.46518 °/min
Orbital period
773.89 mins
BSTAR
-0.0010255
Loading maneuver chart data...
Computing Atmospheric mass density...
Loading historical data...
Loading historical data...
Loading historical data...
Loading historical data...
Loading historical data...
Loading historical data...
Loading historical data...

Documentation

Showing up to 5 results
|